Regional Weather Roundup
Issued by NWS

Home | Current Version | Previous Version | Text Only | Print | Product List | Glossary On
Versions: 1 2 3 4 5 6 7 8 9 10 11 12 13 14 15 16 17 18 19 20 21 22 23 24 25 26 27 28 29 30 31 32 33 34 35 36 37 38 39 40 41 42 43 44 45 46 47 48 49 50
000
ASUS44 KMEG 171700
RWRTN
TENNESSEE HOURLY STATE WEATHER ROUNDUP
NATIONAL WEATHER SERVICE MEMPHIS TN
1100 AM CST SUN DEC 17 2017

TNZ002-004-019-021-049-052-054-088>092-171800-
WEST TENNESSEE

CITY           SKY/WX    TMP DP  RH WIND       PRES   REMARKS
MEMPHIS INTL   CLOUDY    46  43  89 SE7       30.11F
NWS MEMPHIS      N/A     45 N/A N/A MISG        N/A
JACKSON        CLOUDY    45  43  93 E5        30.14S
DYERSBURG      CLOUDY    45  42  89 SE10      30.13F
$$

TNZ008-025-027-028-033-062-065-066-171800-
NORTH MIDDLE TENNESSEE

CITY           SKY/WX    TMP DP  RH WIND       PRES   REMARKS
NASHVILLE      PTSUNNY   44  40  85 S7        30.14F
CLARKSVILLE    CLOUDY    43  39  86 NW5       30.18R FOG
SMYRNA         CLOUDY    44  40  85 SE8       30.14F
CROSSVILLE     CLOUDY    42  32  67 SE5       30.18F
$$

TNZ061-075-076-078-094-096-097-171800-
SOUTH MIDDLE TENNESSEE

CITY           SKY/WX    TMP DP  RH WIND       PRES   REMARKS
$$

TNZ017-018-042-046-047-171800-
NORTHEAST TENNESSEE

CITY           SKY/WX    TMP DP  RH WIND       PRES   REMARKS
TRI CITIES     CLOUDY    36  31  82 CALM      30.23F
$$

TNZ012-013-036-069-073-074-171800-
CENTRAL EAST TENNESSEE

CITY           SKY/WX    TMP DP  RH WIND       PRES   REMARKS
KNOXVILLE      CLOUDY    40  34  79 CALM      30.22F
OAK RIDGE      CLOUDY    41  34  76 CALM      30.25F
$$

TNZ083-085-099-171800-
SOUTHEAST TENNESSEE

CITY           SKY/WX    TMP DP  RH WIND       PRES   REMARKS
CHATTANOOGA    CLOUDY    42  33  70 CALM      30.25F
$$

SKY/WX REPORTED AS FAIR MEANS FEW OR NO CLOUDS BELOW
12 THOUSAND FEET.





USA.gov is the U.S. government's official web portal to all federal, state and local government web resources and services.